LRI582 LEST-LESO

Flight info

Callsign LRI582
Flight time 0h 52m
Altitude 24000
Route ROXE3B ROXER M190 VES/N0471F330 DCT LASKU/N0469F340 M190 BLV/N0472F330 M190 SSN SSN1T
Aircraft CL60/M-SADE3FGHIJ3J4J7P2RWXY/HB1D1

Departure

Time 2026-05-06 18:40
Airport Santiago-Rosalía de Castro Airport (LEST)

Arrival

Time 2026-05-06 19:32
Airport San Sebastián Airport (LESO)
Time Latitude Longitude Altitude Speed Heading
2026-05-06 18:05 42.89037 -8.42018 1211 ft 0 kts 312°
2026-05-06 18:33 42.89037 -8.42019 1211 ft 0 kts 313°
2026-05-06 18:34 42.89044 -8.42018 1211 ft 2 kts 49°
2026-05-06 18:34 42.89031 -8.41997 1211 ft 4 kts 155°
2026-05-06 18:34 42.89028 -8.41950 1211 ft 7 kts 70°
2026-05-06 18:34 42.89045 -8.41875 1212 ft 9 kts 78°
2026-05-06 18:35 42.89061 -8.41779 1213 ft 11 kts 76°
2026-05-06 18:35 42.89083 -8.41665 1213 ft 12 kts 77°
2026-05-06 18:35 42.89075 -8.41565 1214 ft 12 kts 144°
2026-05-06 18:35 42.88983 -8.41527 1214 ft 15 kts 166°
2026-05-06 18:36 42.88868 -8.41486 1214 ft 19 kts 165°
2026-05-06 18:36 42.88726 -8.41441 1213 ft 22 kts 167°
2026-05-06 18:36 42.88571 -8.41389 1210 ft 23 kts 167°
2026-05-06 18:36 42.88453 -8.41352 1208 ft 16 kts 165°
2026-05-06 18:37 42.88411 -8.41337 1207 ft 0 kts 164°
2026-05-06 18:38 42.88368 -8.41310 1206 ft 14 kts 124°
2026-05-06 18:38 42.88379 -8.41186 1205 ft 13 kts 74°
2026-05-06 18:38 42.88421 -8.41110 1205 ft 10 kts
2026-05-06 18:38 42.88434 -8.41112 1205 ft 0 kts 348°
2026-05-06 18:40 42.88856 -8.41253 1212 ft 109 kts 346°
2026-05-06 18:40 42.89808 -8.41590 1581 ft 161 kts 346°
2026-05-06 18:40 42.90919 -8.41964 2629 ft 171 kts 347°
2026-05-06 18:40 42.91958 -8.42336 3971 ft 164 kts 349°
2026-05-06 18:41 42.93113 -8.42721 4846 ft 190 kts 346°
2026-05-06 18:41 42.94496 -8.43275 5559 ft 226 kts 346°
2026-05-06 18:41 42.96065 -8.43815 6245 ft 240 kts 347°
2026-05-06 18:41 42.97715 -8.44335 6952 ft 246 kts 354°
2026-05-06 18:42 42.99451 -8.43963 7665 ft 270 kts 28°
2026-05-06 18:42 43.00827 -8.42231 8373 ft 283 kts 61°
2026-05-06 18:42 43.01314 -8.39654 9090 ft 285 kts 94°
2026-05-06 18:42 43.00857 -8.37027 9799 ft 287 kts 109°
2026-05-06 18:43 43.00220 -8.34477 10487 ft 292 kts 109°
2026-05-06 18:43 42.99548 -8.31772 11187 ft 314 kts 109°
2026-05-06 18:43 42.98831 -8.28886 11881 ft 326 kts 109°
2026-05-06 18:43 42.98148 -8.25938 12581 ft 331 kts 103°
2026-05-06 18:44 42.98004 -8.22815 13287 ft 336 kts 84°
2026-05-06 18:44 42.98611 -8.19732 13992 ft 342 kts 70°
2026-05-06 18:44 42.99455 -8.16690 14685 ft 346 kts 70°
2026-05-06 18:44 43.00306 -8.13590 15398 ft 349 kts 70°
2026-05-06 18:45 43.01158 -8.10481 16094 ft 354 kts 70°
2026-05-06 18:45 43.02012 -8.07359 16792 ft 358 kts 70°
2026-05-06 18:45 43.02888 -8.04153 17491 ft 362 kts 70°
2026-05-06 18:45 43.03466 -8.02032 17947 ft 365 kts 70°
2026-05-06 18:46 43.04657 -7.97661 18897 ft 370 kts 70°
2026-05-06 18:46 43.05550 -7.94381 19596 ft 375 kts 70°
2026-05-06 18:46 43.06464 -7.91017 20303 ft 379 kts 70°
2026-05-06 18:46 43.07372 -7.87670 21003 ft 383 kts 70°
2026-05-06 18:47 43.08305 -7.84226 21716 ft 388 kts 70°
2026-05-06 18:47 43.09233 -7.80795 22416 ft 392 kts 70°
2026-05-06 18:47 43.10177 -7.77303 23122 ft 396 kts 70°
2026-05-06 18:47 43.11142 -7.73724 23722 ft 405 kts 70°
2026-05-06 18:48 43.12136 -7.70030 23937 ft 424 kts 70°
2026-05-06 18:48 43.13160 -7.66220 23960 ft 438 kts 70°
2026-05-06 18:48 43.14222 -7.62264 23961 ft 439 kts 70°
2026-05-06 18:48 43.15245 -7.58444 24193 ft 421 kts 70°
2026-05-06 18:49 43.16230 -7.54765 24871 ft 407 kts 70°
2026-05-06 18:49 43.17188 -7.51179 25571 ft 406 kts 70°
2026-05-06 18:49 43.18163 -7.47525 26280 ft 410 kts 70°
2026-05-06 18:49 43.19139 -7.43860 26986 ft 414 kts 70°
2026-05-06 18:50 43.20132 -7.40130 27698 ft 416 kts 70°
2026-05-06 18:50 43.21109 -7.36450 28395 ft 418 kts 70°
2026-05-06 18:50 43.22094 -7.32683 29105 ft 419 kts 71°
2026-05-06 18:50 43.23070 -7.28908 29812 ft 420 kts 71°
2026-05-06 18:51 43.24041 -7.25150 30518 ft 419 kts 71°
2026-05-06 18:51 43.25011 -7.21390 31228 ft 418 kts 71°
2026-05-06 18:51 43.25974 -7.17650 31776 ft 421 kts 71°
2026-05-06 18:51 43.26961 -7.13810 31939 ft 432 kts 71°
2026-05-06 18:52 43.27973 -7.09866 31957 ft 445 kts 71°
2026-05-06 18:52 43.29018 -7.05787 31949 ft 458 kts 71°
2026-05-06 18:52 43.30074 -7.01661 31955 ft 469 kts 71°
2026-05-06 18:53 43.32267 -6.93064 31958 ft 484 kts 71°
2026-05-06 18:53 43.34496 -6.84291 31965 ft 488 kts 71°
2026-05-06 18:54 43.36721 -6.75507 31959 ft 489 kts 71°
2026-05-06 18:54 43.38948 -6.66679 31968 ft 489 kts 71°
2026-05-06 18:55 43.41185 -6.57936 31973 ft 489 kts 70°
2026-05-06 18:55 43.43452 -6.49092 31974 ft 489 kts 70°
2026-05-06 18:56 43.45693 -6.40311 31977 ft 488 kts 70°
2026-05-06 18:56 43.47938 -6.31485 31989 ft 489 kts 71°
2026-05-06 18:57 43.50159 -6.22718 31987 ft 488 kts 71°
2026-05-06 18:57 43.52392 -6.13870 31992 ft 489 kts 71°
2026-05-06 18:58 43.54511 -6.05026 31995 ft 489 kts 75°
2026-05-06 18:58 43.55416 -5.95757 31992 ft 489 kts 89°
2026-05-06 18:59 43.55101 -5.86384 31990 ft 489 kts 94°
2026-05-06 18:59 43.54694 -5.77048 31991 ft 490 kts 93°
2026-05-06 19:00 43.54280 -5.67714 31986 ft 489 kts 94°
2026-05-06 19:00 43.53860 -5.58402 31981 ft 489 kts 94°
2026-05-06 19:01 43.53431 -5.49070 31988 ft 489 kts 94°
2026-05-06 19:01 43.52995 -5.39730 31988 ft 490 kts 94°
2026-05-06 19:02 43.52551 -5.30358 31990 ft 490 kts 94°
2026-05-06 19:02 43.52098 -5.20986 31992 ft 490 kts 94°
2026-05-06 19:03 43.51639 -5.11639 31991 ft 490 kts 94°
2026-05-06 19:03 43.51173 -5.02308 31992 ft 490 kts 94°
2026-05-06 19:04 43.50702 -4.93004 31991 ft 490 kts 94°
2026-05-06 19:04 43.50221 -4.83682 31993 ft 490 kts 94°
2026-05-06 19:05 43.49730 -4.74317 31996 ft 490 kts 94°
2026-05-06 19:05 43.49235 -4.65025 31989 ft 490 kts 94°
2026-05-06 19:06 43.48729 -4.55666 31993 ft 490 kts 94°
2026-05-06 19:06 43.48242 -4.46342 31991 ft 490 kts 93°
2026-05-06 19:07 43.47794 -4.36994 31995 ft 490 kts 93°
2026-05-06 19:07 43.47286 -4.27658 32006 ft 490 kts 95°
2026-05-06 19:08 43.46719 -4.18307 32000 ft 490 kts 95°
2026-05-06 19:08 43.46148 -4.09004 32002 ft 489 kts 95°
2026-05-06 19:09 43.45572 -3.99735 32008 ft 489 kts 95°
2026-05-06 19:09 43.44965 -3.90444 32000 ft 489 kts 97°
2026-05-06 19:10 43.43697 -3.81275 32002 ft 490 kts 102°
2026-05-06 19:10 43.42338 -3.72101 32011 ft 490 kts 102°
2026-05-06 19:11 43.40976 -3.62942 32010 ft 491 kts 101°
2026-05-06 19:11 43.39597 -3.53708 32013 ft 491 kts 101°
2026-05-06 19:12 43.38223 -3.44558 32013 ft 490 kts 101°
2026-05-06 19:12 43.36837 -3.35369 32005 ft 491 kts 101°
2026-05-06 19:13 43.35461 -3.26187 31640 ft 488 kts 102°
2026-05-06 19:13 43.34786 -3.21639 31071 ft 480 kts 102°
2026-05-06 19:13 43.34128 -3.17228 30450 ft 473 kts 102°
2026-05-06 19:13 43.33478 -3.12873 29906 ft 464 kts 102°
2026-05-06 19:14 43.32836 -3.08589 29382 ft 457 kts 102°
2026-05-06 19:14 43.32202 -3.04360 28737 ft 450 kts 102°
2026-05-06 19:14 43.31574 -3.00189 28052 ft 447 kts 102°
2026-05-06 19:14 43.30951 -2.96066 27311 ft 442 kts 102°
2026-05-06 19:15 43.30453 -2.91957 26573 ft 434 kts 93°
2026-05-06 19:15 43.30447 -2.87865 25825 ft 429 kts 89°
2026-05-06 19:15 43.30497 -2.83835 25071 ft 424 kts 89°
2026-05-06 19:15 43.30539 -2.79826 24321 ft 419 kts 89°
2026-05-06 19:16 43.30580 -2.75869 23570 ft 413 kts 89°
2026-05-06 19:16 43.30618 -2.71988 22826 ft 408 kts 89°
2026-05-06 19:16 43.30655 -2.68092 22165 ft 406 kts 89°
2026-05-06 19:16 43.30690 -2.64241 21460 ft 402 kts 88°
2026-05-06 19:17 43.30723 -2.60470 20766 ft 397 kts 88°
2026-05-06 19:17 43.30754 -2.56694 20065 ft 393 kts 88°
2026-05-06 19:17 43.30784 -2.53033 19374 ft 388 kts 88°
2026-05-06 19:17 43.30812 -2.49367 18672 ft 384 kts 88°
2026-05-06 19:18 43.30839 -2.45749 17987 ft 380 kts 88°
2026-05-06 19:18 43.30864 -2.42152 17283 ft 377 kts 88°
2026-05-06 19:18 43.30888 -2.38568 16581 ft 374 kts 88°
2026-05-06 19:18 43.30911 -2.35070 15890 ft 371 kts 88°
2026-05-06 19:19 43.30932 -2.31548 15190 ft 368 kts 89°
2026-05-06 19:19 43.30952 -2.28027 14480 ft 366 kts 89°
2026-05-06 19:19 43.30971 -2.24586 13792 ft 363 kts 89°
2026-05-06 19:19 43.30988 -2.21157 13093 ft 361 kts 89°
2026-05-06 19:20 43.31005 -2.17724 12423 ft 356 kts 89°
2026-05-06 19:20 43.31020 -2.14406 11969 ft 347 kts 89°
2026-05-06 19:20 43.31034 -2.11136 11493 ft 338 kts 89°
2026-05-06 19:20 43.31046 -2.08007 11041 ft 322 kts 89°
2026-05-06 19:21 43.31057 -2.05008 10675 ft 309 kts 89°
2026-05-06 19:21 43.31067 -2.02093 10266 ft 306 kts 89°
2026-05-06 19:21 43.31077 -1.99168 9858 ft 302 kts 89°
2026-05-06 19:21 43.31222 -1.96334 9380 ft 299 kts 75°
2026-05-06 19:22 43.32162 -1.93828 8461 ft 308 kts 47°
2026-05-06 19:22 43.33818 -1.92043 7776 ft 303 kts 25°
2026-05-06 19:22 43.35785 -1.91279 7224 ft 287 kts
2026-05-06 19:22 43.37690 -1.91570 7044 ft 264 kts 342°
2026-05-06 19:23 43.39344 -1.92618 7044 ft 265 kts 328°
2026-05-06 19:23 43.40794 -1.94150 7022 ft 262 kts 321°
2026-05-06 19:23 43.42308 -1.95371 7023 ft 244 kts 341°
2026-05-06 19:23 43.43940 -1.95726 6880 ft 234 kts
2026-05-06 19:24 43.45514 -1.95298 6578 ft 232 kts 20°
2026-05-06 19:24 43.46888 -1.94157 6273 ft 232 kts 39°
2026-05-06 19:24 43.47887 -1.92450 5968 ft 233 kts 57°
2026-05-06 19:24 43.48671 -1.90490 5690 ft 229 kts 58°
2026-05-06 19:25 43.49420 -1.88608 5448 ft 224 kts 58°
2026-05-06 19:25 43.50162 -1.86746 5116 ft 219 kts 58°
2026-05-06 19:25 43.50885 -1.84932 4748 ft 215 kts 58°
2026-05-06 19:25 43.51598 -1.83144 4387 ft 212 kts 59°
2026-05-06 19:26 43.52298 -1.81388 4063 ft 207 kts 59°
2026-05-06 19:26 43.52974 -1.79690 4021 ft 198 kts 59°
2026-05-06 19:26 43.53637 -1.78026 3989 ft 194 kts 59°
2026-05-06 19:26 43.54271 -1.76425 3638 ft 194 kts 60°
2026-05-06 19:27 43.54624 -1.74612 3244 ft 198 kts 90°
2026-05-06 19:27 43.54229 -1.72838 2958 ft 198 kts 123°
2026-05-06 19:27 43.53380 -1.71376 2937 ft 196 kts 127°
2026-05-06 19:27 43.52511 -1.69900 2758 ft 199 kts 127°
2026-05-06 19:28 43.51642 -1.68419 2716 ft 201 kts 127°
2026-05-06 19:28 43.50750 -1.66925 2666 ft 197 kts 130°
2026-05-06 19:28 43.49622 -1.65842 2700 ft 204 kts 157°
2026-05-06 19:28 43.48222 -1.65671 2719 ft 198 kts 191°
2026-05-06 19:29 43.47063 -1.66451 2684 ft 181 kts 218°
2026-05-06 19:29 43.46088 -1.67537 2500 ft 177 kts 220°
2026-05-06 19:29 43.45152 -1.68575 2291 ft 168 kts 220°
2026-05-06 19:29 43.44264 -1.69555 2055 ft 161 kts 220°
2026-05-06 19:30 43.43401 -1.70510 1837 ft 158 kts 220°
2026-05-06 19:30 43.42548 -1.71454 1634 ft 156 kts 220°
2026-05-06 19:30 43.41710 -1.72379 1435 ft 153 kts 220°
2026-05-06 19:30 43.40901 -1.73273 1234 ft 150 kts 220°
2026-05-06 19:31 43.40086 -1.74173 1035 ft 147 kts 220°
2026-05-06 19:31 43.39301 -1.75039 863 ft 142 kts 220°
2026-05-06 19:31 43.37765 -1.76718 505 ft 139 kts 219°
2026-05-06 19:32 43.37020 -1.77544 231 ft 136 kts 220°
2026-05-06 19:32 43.36288 -1.78352 74 ft 133 kts 221°
2026-05-06 19:32 43.35611 -1.79117 17 ft 107 kts 220°
2026-05-06 19:32 43.35334 -1.79423 16 ft 15 kts 223°
2026-05-06 19:33 43.35288 -1.79477 16 ft 3 kts 167°
2026-05-06 19:33 43.35283 -1.79471 16 ft 0 kts 110°
2026-05-06 19:33 43.35311 -1.79414 16 ft 14 kts 34°
2026-05-06 19:33 43.35385 -1.79345 16 ft 10 kts 34°
2026-05-06 19:34 43.35421 -1.79309 16 ft 8 kts 36°
2026-05-06 19:34 43.35476 -1.79251 16 ft 9 kts 38°
2026-05-06 19:34 43.35516 -1.79240 16 ft 6 kts 324°
2026-05-06 19:34 43.35523 -1.79250 16 ft 1 kts 308°
2026-05-06 19:35 43.35531 -1.79264 16 ft 2 kts 308°
2026-05-06 19:35 43.35553 -1.79300 16 ft 5 kts 309°
2026-05-06 19:35 43.35560 -1.79348 16 ft 7 kts 236°
2026-05-06 19:35 43.35557 -1.79354 16 ft 0 kts 223°